Change the Weather History Date:

Monday, June 9, 2014

  Actual Average Record
Temperature  
Mean Temperature 66 °F -  
Max Temperature 69 °F 78 °F 91 °F (1999)
Min Temperature 62 °F 63 °F 55 °F (2003)
Growing Degree Days 16 (Base 50)    
Moisture  
Dew Point 65 °F    
Average Humidity 97    
Maximum Humidity 100    
Minimum Humidity 78    
Precipitation  
Precipitation 0.59 in - - ()
Sea Level Pressure  
Sea Level Pressure 29.78 in    
Wind  
Wind Speed 7 mph (East)    
Max Wind Speed 14 mph    
Max Gust Speed -    
Visibility 7 miles    
Events Rain    
Averages and records for this station are not official NWS values.
T = Trace of Precipitation, MM = Missing Value Source: NWS Daily Summary

Daily Weather History Graph

Daily Weather History Graph

Search for Another Location

Airport or City:

Trip Planner

Search our weather history database for the weather conditions in past years. The results will help you decide how hot, cold, wet, or windy it might be!

Date:

Astronomy

Jun. 09, 2014 Rise Set
Actual Time 5:46 AM CDT 8:29 PM CDT
Civil Twilight 5:15 AM CDT 9:00 PM CDT
Nautical Twilight 4:36 AM CDT 9:39 PM CDT
Astronomical Twilight 3:52 AM CDT 10:23 PM CDT
Moon 4:54 PM CDT (6/9) 3:09 AM CDT (6/9)
Length of Visible Light 15h 45m
Length of Day
14h 43m
Waxing Gibbous, 85% of the Moon is Illuminated
Jun 9
Waxing Gibbous
Jun 12
Full
Jun 19
Last Quarter
Jun 27
New
Jul 5
First Quarter

Hourly Weather History & Observations

Time (CDT) Temp. Dew Point Humidity Pressure Visibility Wind Dir Wind Speed Gust Speed Precip Events Conditions
12:08 AM 62.6 °F 62.6 °F 100% 29.97 in 10.0 mi North 5.8 mph - N/A   Mostly Cloudy
12:58 AM 64.0 °F 64.0 °F 100% 29.94 in 10.0 mi NNE 4.6 mph - N/A   Overcast
1:58 AM 64.4 °F 64.4 °F 100% 29.92 in 10.0 mi ENE 4.6 mph - N/A   Mostly Cloudy
2:13 AM 64.4 °F 64.4 °F 100% 29.92 in 10.0 mi NE 4.6 mph - N/A   Mostly Cloudy
2:18 AM 64.4 °F 64.4 °F 100% 29.92 in 10.0 mi ENE 3.5 mph - N/A   Overcast
2:23 AM 64.4 °F 64.4 °F 100% 29.92 in 10.0 mi ENE 3.5 mph - N/A   Overcast
2:38 AM 64.4 °F 64.4 °F 100% 29.92 in 10.0 mi ENE 4.6 mph - N/A   Overcast
2:48 AM 64.4 °F 64.4 °F 100% 29.92 in 10.0 mi ENE 4.6 mph - N/A   Overcast
2:58 AM 64.4 °F 64.4 °F 100% 29.91 in 10.0 mi ENE 3.5 mph - N/A   Overcast
3:58 AM 64.2 °F 64.0 °F 99% 29.88 in 10.0 mi East 4.6 mph - N/A   Overcast
4:58 AM 64.0 °F 64.0 °F 100% 29.88 in 10.0 mi East 5.8 mph - N/A   Overcast
5:58 AM 63.7 °F 63.7 °F 100% 29.86 in 10.0 mi East 5.8 mph - N/A   Overcast
6:58 AM 64.0 °F 64.0 °F 100% 29.87 in 10.0 mi ESE 9.2 mph - N/A   Overcast
7:58 AM 65.5 °F 64.0 °F 95% 29.85 in 10.0 mi East 5.8 mph - N/A   Scattered Clouds
8:58 AM 68.7 °F 61.7 °F 78% 29.86 in 10.0 mi SE 12.7 mph - N/A   Mostly Cloudy
9:23 AM 68.0 °F 62.6 °F 83% 29.87 in 10.0 mi ESE 13.8 mph - N/A   Overcast
9:38 AM 68.0 °F 62.6 °F 83% 29.87 in 10.0 mi East 9.2 mph - N/A   Mostly Cloudy
9:53 AM 68.0 °F 62.6 °F 83% 29.87 in 10.0 mi ESE 12.7 mph - N/A   Mostly Cloudy
9:58 AM 68.0 °F 62.4 °F 82% 29.86 in 10.0 mi ESE 13.8 mph - N/A   Mostly Cloudy
10:08 AM 68.0 °F 62.6 °F 83% 29.86 in 10.0 mi ESE 10.4 mph - N/A   Mostly Cloudy
10:28 AM 68.0 °F 62.6 °F 83% 29.86 in 10.0 mi ESE 10.4 mph - N/A   Overcast
10:58 AM 68.4 °F 63.1 °F 83% 29.85 in 10.0 mi ESE 10.4 mph - N/A   Overcast
11:58 AM 68.0 °F 63.3 °F 85% 29.85 in 10.0 mi ESE 9.2 mph - N/A   Overcast
12:58 PM 69.3 °F 64.0 °F 83% 29.82 in 10.0 mi ESE 11.5 mph - N/A   Overcast
2:31 PM 68.0 °F 66.2 °F 94% 29.78 in 1.8 mi East 5.8 mph - N/A Rain Light Rain
2:46 PM 66.2 °F 66.2 °F 100% 29.78 in 2.0 mi East 8.1 mph - N/A Rain Light Rain
2:58 PM 66.6 °F 66.6 °F 100% 29.77 in 2.5 mi East 9.2 mph - 0.11 in Rain Light Rain
3:08 PM 66.2 °F 66.2 °F 100% 29.77 in 1.8 mi East 9.2 mph - N/A Rain Rain
3:18 PM 66.2 °F 66.2 °F 100% 29.77 in 2.0 mi East 9.2 mph - N/A Rain Light Rain
3:43 PM 66.2 °F 66.2 °F 100% 29.76 in 3.0 mi East 8.1 mph - N/A Rain Light Rain
3:53 PM 66.2 °F 66.2 °F 100% 29.76 in 4.0 mi East 8.1 mph - N/A Rain Light Rain
3:58 PM 66.0 °F 66.0 °F 100% 29.75 in 4.0 mi ESE 8.1 mph - 0.18 in Rain Light Rain
4:03 PM 66.2 °F 66.2 °F 100% 29.76 in 6.0 mi East 8.1 mph - N/A Rain Light Rain
4:23 PM 66.2 °F 66.2 °F 100% 29.75 in 6.0 mi East 9.2 mph - N/A   Light Drizzle
4:28 PM 66.2 °F 66.2 °F 100% 29.75 in 6.0 mi East 8.1 mph - N/A Rain Light Rain
4:58 PM 66.0 °F 66.0 °F 100% 29.73 in 5.0 mi East 5.8 mph - 0.03 in Rain Light Rain
5:58 PM 66.0 °F 66.0 °F 100% 29.72 in 7.0 mi East 8.1 mph - 0.06 in   Light Drizzle
6:03 PM 66.2 °F 66.2 °F 100% 29.73 in 2.5 mi East 8.1 mph - N/A   Light Drizzle
6:08 PM 66.2 °F 66.2 °F 100% 29.73 in 1.5 mi East 6.9 mph - N/A Rain Light Rain
6:13 PM 66.2 °F 66.2 °F 100% 29.73 in 1.8 mi East 6.9 mph - N/A Rain Light Rain
6:18 PM 66.2 °F 66.2 °F 100% 29.72 in 2.5 mi East 5.8 mph - N/A Rain Light Rain
6:23 PM 66.2 °F 66.2 °F 100% 29.72 in 3.0 mi East 6.9 mph - N/A Rain Light Rain
6:58 PM 66.0 °F 66.0 °F 100% 29.71 in 4.0 mi East 6.9 mph - 0.09 in   Light Drizzle
7:03 PM 66.2 °F 66.2 °F 100% 29.72 in 2.5 mi East 6.9 mph - N/A Rain Light Rain
7:08 PM 66.2 °F 66.2 °F 100% 29.72 in 2.5 mi East 5.8 mph - N/A Rain Light Rain
7:13 PM 66.2 °F 66.2 °F 100% 29.72 in 3.0 mi East 6.9 mph - N/A Rain Light Rain
7:18 PM 66.2 °F 66.2 °F 100% 29.72 in 3.0 mi East 8.1 mph - N/A Rain Light Rain
7:31 PM 66.2 °F 66.2 °F 100% 29.72 in 6.0 mi East 8.1 mph - N/A   Overcast
7:51 PM 66.2 °F 66.2 °F 100% 29.71 in 10.0 mi East 9.2 mph - N/A   Overcast
7:58 PM 65.8 °F 65.8 °F 100% 29.70 in 10.0 mi East 9.2 mph - 0.05 in   Overcast
8:07 PM 66.2 °F 66.2 °F 100% 29.71 in 3.0 mi East 8.1 mph - N/A Rain Light Rain
8:12 PM 66.2 °F 66.2 °F 100% 29.71 in 2.0 mi East 8.1 mph - N/A Rain Light Rain
8:27 PM 66.2 °F 66.2 °F 100% 29.71 in 4.0 mi East 8.1 mph - N/A   Light Drizzle
8:45 PM 66.2 °F 66.2 °F 100% 29.70 in 9.0 mi East 6.9 mph - N/A   Overcast
8:47 PM 66.2 °F 66.2 °F 100% 29.70 in 6.0 mi East 8.1 mph - N/A Rain Light Rain
8:57 PM 66.2 °F 66.2 °F 100% 29.70 in 3.0 mi SSE 6.9 mph - N/A Rain Light Rain
8:58 PM 66.2 °F 66.2 °F 100% 29.69 in 3.0 mi SSE 5.8 mph - 0.06 in Rain Light Rain
9:08 PM 66.2 °F 66.2 °F 100% 29.70 in 5.0 mi ESE 11.5 mph - N/A   Light Drizzle
9:17 PM 66.2 °F 66.2 °F 100% 29.70 in 10.0 mi ESE 8.1 mph - N/A   Overcast
9:37 PM 66.2 °F 66.2 °F 100% 29.71 in 10.0 mi SE 8.1 mph - N/A   Overcast
9:42 PM 66.2 °F 66.2 °F 100% 29.71 in 10.0 mi ESE 8.1 mph - N/A   Overcast
9:57 PM 66.2 °F 66.2 °F 100% 29.71 in 10.0 mi ESE 9.2 mph - N/A   Overcast
9:58 PM 66.4 °F 66.4 °F 100% 29.70 in 10.0 mi ESE 9.2 mph - 0.01 in   Overcast
10:03 PM 66.2 °F 66.2 °F 100% 29.71 in 10.0 mi East 8.1 mph - N/A   Overcast
10:43 PM 66.2 °F 66.2 °F 100% 29.71 in 10.0 mi ESE 5.8 mph - N/A   Overcast
10:48 PM 66.2 °F 66.2 °F 100% 29.71 in 10.0 mi ESE 6.9 mph - N/A   Overcast
10:58 PM 66.4 °F 66.4 °F 100% 29.70 in 10.0 mi ESE 4.6 mph - N/A   Overcast
11:18 PM 66.2 °F 66.2 °F 100% 29.71 in 10.0 mi ESE 5.8 mph - N/A   Overcast
11:28 PM 66.2 °F 66.2 °F 100% 29.71 in 10.0 mi ESE 5.8 mph - N/A   Overcast
11:33 PM 66.2 °F 66.2 °F 100% 29.71 in 10.0 mi SE 5.8 mph - N/A   Overcast
11:43 PM 66.2 °F 66.2 °F 100% 29.71 in 10.0 mi ESE 5.8 mph - N/A   Overcast
11:58 PM 66.2 °F 66.2 °F 100% 29.70 in 10.0 mi SE 6.9 mph - N/A   Overcast